Location: Ferris
(32.5340°N, 96.6656°W)
Time: 11:18:51
(UTC+00:00)

Cosmos 2369 - Pass Details

Date: 11 February 2026
Orbit: 840 x 853 km, 71.0° (Epoch: 7 March)

Event Time Altitude Azimuth Distance (km) Brightness Sun altitude
Rises 12:39:09 0° 217° (SW) 3,396 6.6 -7.8°
Reaches altitude 10° 12:41:44 10° 224° (SW) 2,462 5.8 -7.3°
Maximum altitude 12:47:03 42° 295° (WNW) 1,191 4.1 -6.2°
Drops below altitude 10° 12:52:23 10° 5° (N) 2,465 6.1 -5.1°
Sets 12:54:59 0° 13° (NNE) 3,401 6.8 -4.5°
